User: anonymous   Login
Location: Newark
(50.0306°N, 2.3272°E)
Time: 10:37:12
(UTC+00:00)
Language:

Transit 2A - Orbit

View from above orbital plane
View from above orbital plane
View from above satellite
View from above satellite

Ground track
Ground track

The orbit data is extracted from the following two-line orbital elements,

1    45U 60007A   19346.85949485 -.00000054  00000-0  13215-4 0  9993
2    45  66.6930 155.2593 0248122  92.2668 270.6862 14.33659617 95812
Epoch (UTC): 12 December 2019 20:37:40
Eccentricity: 0.0248122
inclination: 66.6930°
perigee height: 602 km
apogee height: 957 km
right ascension of ascending node: 155.2593°
argument of perigee: 92.2668°
revolutions per day: 14.33659617
mean anomaly at epoch: 270.6862°
orbit number at epoch: 9581

The dashed part of the orbit path shows where the satellite is in the earth's shadow,  

DLR